Regional Weather Roundup
Issued by NWS

Home | Current Version | Previous Version | Graphics & Text | Print | Product List | Glossary On
Versions: 1 2 3 4 5 6 7 8 9 10 11 12 13 14 15 16 17 18 19 20 21 22 23 24 25 26 27 28 29 30 31 32 33 34 35 36 37 38 39 40 41 42 43 44 45 46 47 48 49 50
000
ASUS43 KDMX 281007
RWRIA

WEATHER ROUNDUP FOR IOWA
NATIONAL WEATHER SERVICE DES MOINES IA
500 AM CDT TUE JUL 28 2015

NOTE: "FAIR" INDICATES FEW OR NO CLOUDS BELOW 12,000 FEET WITH NO
SIGNIFICANT WEATHER AND/OR OBSTRUCTIONS TO VISIBILITY.

* - THESE STATIONS ARE NOT NWS STATIONS...THUS NOT UNDER NWS
QUALITY CONTROL.  THEY ALSO DO NOT REPORT WEATHER SUCH
AS PRECIPITATION OR FOG.

IAZ001>003-012>014-020>022-031>034-043>046-281100-
   NORTHWEST IOWA

CITY           SKY/WX    TMP DP  RH WIND       PRES   REMARKS
CARROLL *      PTCLDY    72  70  94 S6        29.82S
CHEROKEE *     TSTM      73  72  94 S13       29.74F
DENISON *      PTCLDY    73  70  88 S18G25    29.77F
LE MARS *      HVY RAIN  68  68 100 NW16G32   29.84R VSB 3/4
ORANGE CITY *  RAIN      66  66 100 NW12      29.86R
SHELDON *      HVY RAIN  68  68 100 NW14G32   29.86R VSB 1
SIOUX CITY     CLOUDY    75  71  87 MISG      29.79R
SPENCER        LGT RAIN  72  68  87 SE17G24   29.74F
STORM LAKE *   MOCLDY    72  70  94 SE12G18   29.78F
$$

IAZ055>058-069>071-079>083-090>094-281100-
   SOUTHWEST IOWA

CITY           SKY/WX    TMP DP  RH WIND       PRES   REMARKS
ATLANTIC *     MOCLDY    73  70  88 VRB7G15   29.83S
AUDUBON *      CLEAR     73  68  83 S7        29.85R
CLARINDA *     CLEAR     73  72  94 S8        29.85F
COUNCIL BLFS * CLEAR     75  72  88 S15G25    29.78F
CRESTON *      CLEAR     72  70  94 S9        29.87F
HARLAN  *      CLEAR     73  73 100 S9        29.84F
LAMONI         CLEAR     73  69  87 S7        29.89S
RED OAK *      CLEAR     73  72  94 S9        29.82F
SHENANDOAH *   CLEAR     75  73  94 SE13G18   29.82F
$$

IAZ047>049-059>061-072>074-084-281100-
   CENTRAL IOWA

CITY           SKY/WX    TMP DP  RH WIND       PRES   REMARKS
AMES           CLOUDY    71  70  96 SE10      29.85F FOG
ANKENY *       CLEAR     72  72 100 SE6       29.85F
CHARITON *     MOCLDY    73  70  88 S9        29.89S
DES MOINES     PTCLDY    74  69  85 S9        29.85F
GRINNELL*      MOCLDY    73  72  94 SE10      29.90F FOG
KNOXVILLE *    CLOUDY    72  70  94 SE6       29.88S FOG
MARSHALLTOWN   CLOUDY    74  72  93 SE13      29.87F FOG
PELLA *          N/A     72  72 100 SE7       29.89F FOG
PERRY *          N/A     72  70  94 SE7       29.84F
$$

IAZ004>006-015-016-023>025-035-036-281100-
   NORTH CENTRAL IOWA

CITY           SKY/WX    TMP DP  RH WIND       PRES   REMARKS
ALGONA *       MOCLDY    72  70  94 SE12G20   29.84R
CLARION *      CLEAR     73  70  88 S15       29.84F
ESTHERVILLE    CLOUDY    70  68  93 SE16G24   29.79F
FORT DODGE *   MOCLDY    73  66  78 S8G17     29.85R
MASON CITY     CLOUDY    71  70  96 SW6       29.91R
FOREST CITY *  HVY RAIN  72  72 100 CALM      29.87F
IOWA FALLS *   CLOUDY    72  70  94 SE9       29.88F FOG
$$

IAZ007>011-017>019-026>030-037>042-050>054-066-281100-
   NORTHEAST IOWA

CITY           SKY/WX    TMP DP  RH WIND       PRES   REMARKS
CEDAR RAPIDS   MOCLDY    73  73 100 SE8       29.91F THUNDER
CHARLES CITY * MOCLDY    72  72 100 S9G16     29.90R FOG
CLINTON *      CLEAR     70  64  83 E9        29.97F
DECORAH *      PTCLDY    70  70 100 SE9G17    29.90F FOG
DUBUQUE        CLEAR     70  65  84 SE13      29.95F
MONTICELLO *   CLEAR     72  68  88 SE9       29.93F
OELWEIN *        N/A     72  72 100 SE10      29.91F
WATERLOO       TSTM      73  71  93 S12       29.89R FOG
$$

IAZ064-065-067-068-078-281100-
   EAST CENTRAL IOWA

CITY           SKY/WX    TMP DP  RH WIND       PRES   REMARKS
DAVENPORT      CLEAR     71  68  90 E7        29.94F
IOWA CITY      PTCLDY    73  71  93 SE6       29.93F
MT. PLEASANT * PTCLDY    75  72  88 SE5       29.92F FOG
MUSCATINE *    CLEAR     70  68  94 CALM      29.93S
QUAD CITIES    PTCLDY    71  68  90 E7        29.94S
$$

IAZ062-063-075>077-085>089-095>099-281100-
   SOUTHEAST IOWA

CITY           SKY/WX    TMP DP  RH WIND       PRES   REMARKS
BURLINGTON     CLEAR     74  74 100 SE6       29.92S FOG
FAIRFIELD *    CLOUDY    73  73 100 SE9       29.91S FOG
FORT MADISON * CLOUDY    73  73 100 S8        29.93S FOG
KEOKUK *       MOCLDY    73  72  94 SE5       29.92S
OSKALOOSA *      N/A     72  70  94 S6        29.90F FOG
CENTERVILLE *  CLEAR     73  70  88 S7        29.92S
OTTUMWA        PTCLDY    72  71  97 SE10      29.88F
WASHINGTON *   CLOUDY    73  73 100 SE5       29.93F FOG
$$

ABBREVIATIONS USED IN REMARKS
   TC - TEMPERATURES IN CELSIUS
  WCI - WIND CHILL INDEX
   HX - HEAT INDEX
  VSB - VISIBILITY
$$




USA.gov is the U.S. government's official web portal to all federal, state and local government web resources and services.